Lid_Strength_Index
3 3 3 4 5 5 6 5 5 4 3 4 2 2 2 2 1 1 1 1 1 0 1 1 3 3 4 4 6 6 8 9 12 14 15 15 14 15 14 13 13 14 14
5 4 4 4 3 4 5 5 5 5 4 3 6 3 1 1 1 1 1 1 1 1 1 1 3 3 4 5 6 8 9 11 11 11 14 17 17 17 15 14 15 15 15
6 5 5 4 4 4 4 5 5 5 5 5 4 7 6 1 2 2 1 1 1 1 2 1 3 3 4 6 7 8 9 13 12 11 13 17 17 18 16 16 16 16 16
5 5 6 5 5 4 4 4 5 6 5 5 5 5 8 7 2 2 1 1 1 2 2 2 3 3 5 6 7 8 9 12 12 12 12 12 15 16 19 16 16 16 17
6 6 6 6 6 5 5 5 5 5 6 6 5 5 7 7 4 2 2 2 2 2 2 2 3 4 5 6 7 9 9 10 11 12 13 14 13 13 15 18 18 17 16
7 7 7 7 8 7 7 6 6 6 5 6 6 5 5 8 5 3 3 2 2 2 3 3 3 4 5 6 7 8 9 10 10 10 11 13 14 14 15 17 18 19 17
8 9 9 9 10 9 9 8 8 7 6 6 6 6 5 4 5 3 3 3 3 3 3 3 4 4 5 6 7 8 9 9 10 10 11 11 12 12 13 16 17 17 17
10 10 11 10 11 11 10 10 9 8 6 6 6 6 5 4 3 3 2 2 3 3 3 3 4 5 6 6 6 8 8 9 10 11 11 12 13 13 13 15 16 19 18
11 12 12 11 12 11 11 11 11 9 8 6 6 6 6 4 3 3 3 4 4 5 5 5 5 5 7 6 7 8 10 10 12 13 13 14 15 15 14 14 14 16 19
12 13 13 12 12 11 11 10 10 9 8 7 6 6 6 4 4 2 4 7 7 8 10 11 11 10 10 10 11 12 14 14 14 15 16 16 16 16 16 15 16 15 15
13 13 13 13 13 12 12 11 11 9 8 7 7 6 6 5 4 6 9 10 12 12 13 13 14 14 14 14 15 15 16 16 16 16 16 17 17 17 17 17 16 16 16
13 14 14 14 14 14 13 12 11 10 8 7 6 6 6 8 10 12 13 13 15 15 15 15 15 15 15 16 16 16 16 16 17 17 18 18 18 18 17 17 17 17 16
14 15 15 15 15 15 14 12 11 10 8 7 7 8 11 12 13 14 14 14 14 15 15 15 16 16 16 16 16 16 16 17 18 18 19 19 18 18 17 17 18 18 17
15 16 16 15 15 15 14 12 11 9 9 9 10 11 12 13 13 13 14 14 14 15 15 15 15 15 15 16 16 18 18 19 19 19 18 18 18 18 18 18 18 18 18
16 16 16 16 16 15 15 13 12 11 11 11 12 13 13 13 13 14 14 15 15 15 15 16 16 16 16 17 18 18 18 19 19 19 18 18 17 17 17 18 18 18 18
17 17 16 16 16 16 15 14 14 13 12 12 13 13 14 14 14 15 16 15 16 16 16 17 17 17 16 15 16 18 18 18 19 19 19 18 17 17 17 17 16 17 18
17 16 16 16 16 16 15 16 15 14 15 15 15 15 15 15 15 15 16 16 16 17 17 18 18 18 17 15 16 17 17 17 18 18 18 18 18 18 18 16 16 16 16
17 17 17 16 15 15 15 15 15 16 16 16 16 16 16 16 15 16 17 17 17 17 17 18 17 17 17 16 17 17 18 19 19 18 18 18 18 18 18 18 18 18 17
16 17 16 16 15 15 15 16 15 16 17 17 17 17 17 17 17 17 16 16 17 17 17 17 18 18 17 16 16 18 19 19 19 19 18 18 18 17 16 17 17 18 18
16 17 17 17 16 16 15 16 16 16 17 17 17 16 16 17 17 16 17 17 16 17 17 17 17 17 17 16 16 17 18 19 19 18 17 16 16 15 15 16 17 18 18
15 15 16 18 17 16 16 17 16 17 16 15 16 16 16 16 16 16 16 16 16 17 17 18 17 17 17 17 16 16 17 18 18 18 17 16 14 14 15 16 17 18 18
15 14 15 17 17 15 16 17 18 17 16 16 17 16 16 16 16 16 17 17 17 17 18 18 18 17 16 15 15 15 15 15 17 17 16 16 14 15 16 17 17 17 19
14 14 14 15 15 15 15 17 17 17 17 17 18 17 17 17 17 17 17 17 17 18 18 18 17 17 16 16 15 14 15 15 16 16 16 15 15 17 18 18 19 21 21
15 15 15 16 16 15 16 15 15 15 16 17 17 17 17 17 17 16 16 16 17 17 17 17 18 17 17 17 16 15 16 16 17 16 17 17 18 20 20 21 20 21 21
15 15 16 16 17 16 16 16 16 16 16 16 17 17 17 17 18 17 17 17 17 16 16 15 16 16 17 17 16 16 17 18 18 20 21 21 22 22 22 22 23 22 23
15 16 16 16 17 17 17 17 17 17 16 16 16 16 16 16 16 16 16 14 14 14 14 14 15 16 15 16 16 16 16 17 17 21 22 22 21 22 21 22 22 22 24